• Join FlightAware (Why Join?)
  • Login
  • US Flag 
09:05PM EDT


 

Airport Tracker/Info


-or-


 

Live Flight TrackerFlight Track Log ✈ PDT4129 ✈ 27-Apr-2013 ✈ KPGV - KCLT

Flight Track Log - Related Links

Times and Time Zones

All times are in EDT time to prevent confusion due to time zone crossing. See the PDT4129 flight status page for this flight to view local times or setup timezone preferences in your user account.

Time Position Orientation Groundspeed Altitude Reporting Facility
EDT Latitude Longitude Course Direction KTS MPH feet Rate Location/Type
07:05AM 35.6919 -77.3797 287° West 249 287 1,600  Level Washington Center
07:06AM 35.7167 -77.4161 310° West 168 193 2,500 1,020 Climbing Washington Center
07:07AM 35.6791 -77.6454 284° West  Level FlightAware Approximate
07:07AM 35.7197 -77.4750 274° West 145 167 3,700  Level Washington Center
07:08AM 35.6833 -77.7118 270° West  Level FlightAware Approximate
07:08AM 35.7272 -77.5314 279° West 150 173 4,700  Level Washington Center
07:09AM 35.6982 -77.7761 287° West  Level FlightAware Approximate
07:09AM 35.7347 -77.5906 279° West 170 196 5,700  Level Washington Center
07:10AM 35.7165 -77.8493 287° West  Level FlightAware Approximate
07:10AM 35.7419 -77.6494 279° West 175 201 6,700  Level Washington Center
07:11AM 35.7492 -77.7111 278° West 181 208 7,700 960 Climbing Washington Center
07:12AM 35.7564 -77.7703 279° West 181 208 8,700 960 Climbing Washington Center
07:13AM 35.7636 -77.8319 278° West 181 208 9,700 600 Climbing Washington Center
07:14AM 35.7708 -77.8961 278° West 181 208 10,000 120 Climbing Washington Center
07:15AM 35.7819 -77.9758 280° West 207 238 10,000 -60 Level Washington Center
07:16AM 35.7925 -78.0606 279° West 234 269 9,900  Descending Washington Center
07:17AM 35.8014 -78.1453 277° West 251 289 10,000  Climbing Washington Center
07:18AM 35.8100 -78.2303 277° West 256 295 9,900 -60 Descending Washington Center
07:19AM 35.8100 -78.3172 270° West 256 295 9,900  Level Washington Center
07:20AM 35.8097 -78.4144 270° West 256 295 9,900  Level Washington Center
07:21AM 35.8097 -78.5017 270° West 256 295 9,900  Level Washington Center
07:22AM 35.8119 -78.5836 272° West 256 295 9,900  Level Washington Center
07:23AM 35.8139 -78.6683 272° West 256 295 9,900  Level Washington Center
07:24AM 35.8139 -78.7528 270° West 256 295 9,900  Level Washington Center
07:25AM 35.8136 -78.8397 270° West 251 289 10,000  Climbing Washington Center
07:26AM 35.8111 -78.9344 268° West 247 284 9,900  Descending Washington Center
07:27AM 35.8128 -79.0192 271° West 245 282 10,000  Climbing Washington Center
07:28AM 35.8106 -79.1008 268° West 244 281 9,900 -180 Descending Washington Center
07:30AM 35.8050 -79.2028 273° West  Level FlightAware Approximate
07:37AM 35.8004 -79.7282 270° West  Level FlightAware Approximate
07:38AM 35.8005 -79.8035 270° West  Level FlightAware Approximate
07:39AM 35.8006 -79.8788 270° West  Level FlightAware Approximate
07:40AM 35.8007 -79.9541 270° West  Level FlightAware Approximate
07:41AM 35.8007 -80.0294 270° West  Level FlightAware Approximate
07:42AM 35.8007 -80.1047 270° West  Level FlightAware Approximate
07:42AM 35.8292 -80.1942 219° Southwest 209 241 8,000  Level Atlanta Center
07:43AM 35.8006 -80.1800 270° West  Level FlightAware Approximate
07:43AM 35.8556 -80.2442 303° West 211 243 7,100  Level Atlanta Center
07:44AM 35.8004 -80.2553 270° West  Level FlightAware Approximate
07:44AM 35.8600 -80.3208 274° West 222 255 7,000  Level Atlanta Center
07:45AM 35.8003 -80.3307 270° West  Level FlightAware Approximate
07:45AM 35.8139 -80.3769 225° Southwest 224 258 6,600  Level Atlanta Center
07:46AM 35.8000 -80.4060 270° West  Level FlightAware Approximate
07:46AM 35.7722 -80.4478 234° Southwest 257 296 6,000  Level Atlanta Center
07:47AM 35.7668 -80.4582 211° Southwest  Level FlightAware Approximate
07:47AM 35.7303 -80.5161 233° Southwest 257 296 6,000  Level Atlanta Center
07:48AM 35.7163 -80.5003 219° Southwest  Level FlightAware Approximate
07:48AM 35.6925 -80.5792 234° Southwest 245 282 6,000  Level Atlanta Center
07:49AM 35.6444 -80.6528 231° Southwest 242 278 6,000  Level Atlanta Center
07:50AM 35.6064 -80.7156 233° Southwest 241 277 6,000  Level Atlanta Center
07:51AM 35.5667 -80.7811 233° Southwest 240 276 6,000 -480 Level Atlanta Center
07:52AM 35.5264 -80.8439 232° Southwest 243 280 5,100 -960 Descending Atlanta Center
07:53AM 35.4844 -80.9119 233° Southwest 248 285 4,100 -600 Descending Atlanta Center
07:54AM 35.4353 -80.9519 214° Southwest 194 223 4,000 -240 Descending Atlanta Center
07:55AM 35.3836 -80.9692 195° South 172 198 3,700 -600 Descending Atlanta Center
07:56AM 35.3397 -80.9658 176° South 162 186 2,900 -900 Descending Atlanta Center